Year,Month,Day,Hour,Minute,Value (Times are PST for temperature in C)
2010,10,13,00,00,7.10
2010,10,13,00,01,7.10
2010,10,13,00,02,7.10
2010,10,13,00,03,7.00
2010,10,13,00,04,7.00
2010,10,13,00,05,7.00
2010,10,13,00,06,7.00
2010,10,13,00,07,7.00
2010,10,13,00,08,7.00
2010,10,13,00,09,7.00
2010,10,13,00,10,7.00
2010,10,13,00,11,7.00
2010,10,13,00,12,7.10
2010,10,13,00,16,7.20
2010,10,13,00,17,7.20
2010,10,13,00,18,7.20
2010,10,13,00,19,7.20
2010,10,13,00,20,7.20
2010,10,13,00,21,7.20
2010,10,13,00,22,7.20
2010,10,13,00,23,7.20
2010,10,13,00,24,7.10
2010,10,13,00,25,7.10
2010,10,13,00,26,7.10
2010,10,13,00,27,7.10
2010,10,13,00,28,7.10
2010,10,13,00,29,7.00
2010,10,13,00,30,7.00
2010,10,13,00,31,7.00
2010,10,13,00,32,7.00
2010,10,13,00,33,6.90
2010,10,13,00,34,6.90
2010,10,13,00,35,6.90
2010,10,13,00,36,6.90
2010,10,13,00,37,6.90
2010,10,13,00,38,6.90
2010,10,13,00,39,6.90
2010,10,13,00,40,6.90
2010,10,13,00,41,7.00
2010,10,13,00,42,7.00
2010,10,13,00,43,7.00
2010,10,13,00,44,7.00
2010,10,13,00,45,7.00
2010,10,13,00,46,7.00
2010,10,13,00,47,7.00
2010,10,13,00,48,7.00
2010,10,13,00,49,7.00
2010,10,13,00,50,7.00
2010,10,13,00,51,7.00
2010,10,13,00,52,7.00
2010,10,13,00,53,7.00
2010,10,13,00,54,7.00
2010,10,13,00,55,7.00
2010,10,13,00,56,7.00
2010,10,13,00,57,7.00
2010,10,13,00,58,7.00
2010,10,13,00,59,7.00
2010,10,13,01,00,7.00
2010,10,13,01,01,7.00
2010,10,13,01,02,7.00
2010,10,13,01,03,6.90
2010,10,13,01,04,6.90
2010,10,13,01,05,6.90
2010,10,13,01,06,6.90
2010,10,13,01,07,6.90
2010,10,13,01,08,6.80
2010,10,13,01,09,6.80
2010,10,13,01,10,6.80
2010,10,13,01,11,6.80
2010,10,13,01,12,6.80
2010,10,13,01,13,6.80
2010,10,13,01,14,6.80
2010,10,13,01,15,6.80
2010,10,13,01,16,6.80
2010,10,13,01,17,6.80
2010,10,13,01,18,6.80
2010,10,13,01,19,6.80
2010,10,13,01,20,6.80
2010,10,13,01,21,6.80
2010,10,13,01,22,6.80
2010,10,13,01,23,6.80
2010,10,13,01,24,6.80
2010,10,13,01,25,6.70
2010,10,13,01,26,6.70
2010,10,13,01,27,6.70
2010,10,13,01,28,6.70
2010,10,13,01,29,6.70
2010,10,13,01,30,6.70
2010,10,13,01,31,6.70
2010,10,13,01,32,6.70
2010,10,13,01,33,6.70
2010,10,13,01,34,6.70
2010,10,13,01,35,6.70
2010,10,13,01,36,6.70
2010,10,13,01,37,6.70
2010,10,13,01,38,6.70
2010,10,13,01,39,6.70
2010,10,13,01,40,6.60
2010,10,13,01,41,6.60
2010,10,13,01,42,6.60
2010,10,13,01,43,6.60
2010,10,13,01,44,6.60
2010,10,13,01,45,6.60
2010,10,13,01,46,6.60
2010,10,13,01,47,6.60
2010,10,13,01,48,6.60
2010,10,13,01,49,6.60
2010,10,13,01,50,6.60
2010,10,13,01,51,6.60
2010,10,13,01,52,6.60
2010,10,13,01,53,6.60
2010,10,13,01,54,6.60
2010,10,13,01,55,6.60
2010,10,13,01,56,6.60
2010,10,13,01,57,6.60
2010,10,13,01,58,6.60
2010,10,13,01,59,6.60
2010,10,13,02,00,6.60
2010,10,13,02,01,6.60
2010,10,13,02,02,6.60
2010,10,13,02,03,6.60
2010,10,13,02,04,6.60
2010,10,13,02,05,6.60
2010,10,13,02,06,6.60
2010,10,13,02,07,6.60
2010,10,13,02,08,6.60
2010,10,13,02,09,6.60
2010,10,13,02,10,6.60
2010,10,13,02,11,6.60
2010,10,13,02,12,6.60
2010,10,13,02,13,6.60
2010,10,13,02,14,6.60
2010,10,13,02,15,6.60
2010,10,13,02,16,6.60
2010,10,13,02,17,6.60
2010,10,13,02,18,6.60
2010,10,13,02,19,6.60
2010,10,13,02,20,6.60
2010,10,13,02,21,6.60
2010,10,13,02,22,6.60
2010,10,13,02,23,6.60
2010,10,13,02,24,6.60
2010,10,13,02,25,6.60
2010,10,13,02,26,6.60
2010,10,13,02,27,6.70
2010,10,13,02,28,6.70
2010,10,13,02,29,6.70
2010,10,13,02,30,6.60
2010,10,13,02,31,6.60
2010,10,13,02,32,6.60
2010,10,13,02,33,6.60
2010,10,13,02,34,6.60
2010,10,13,02,35,6.60
2010,10,13,02,36,6.60
2010,10,13,02,37,6.60
2010,10,13,02,38,6.60
2010,10,13,02,39,6.60
2010,10,13,02,40,6.50
2010,10,13,02,41,6.40
2010,10,13,02,42,6.40
2010,10,13,02,43,6.40
2010,10,13,02,44,6.40
2010,10,13,02,45,6.40
2010,10,13,02,46,6.50
2010,10,13,02,47,6.60
2010,10,13,02,48,6.60
2010,10,13,02,49,6.60
2010,10,13,02,50,6.60
2010,10,13,02,51,6.60
2010,10,13,02,52,6.50
2010,10,13,02,53,6.40
2010,10,13,02,54,6.40
2010,10,13,02,55,6.40
2010,10,13,02,56,6.40
2010,10,13,02,57,6.40
2010,10,13,02,58,6.40
2010,10,13,02,59,6.40
2010,10,13,03,00,6.40
2010,10,13,03,01,6.40
2010,10,13,03,02,6.40
2010,10,13,03,03,6.50
2010,10,13,03,04,6.60
2010,10,13,03,05,6.60
2010,10,13,03,06,6.60
2010,10,13,03,07,6.60
2010,10,13,03,08,6.60
2010,10,13,03,09,6.50
2010,10,13,03,10,6.40
2010,10,13,03,11,6.40
2010,10,13,03,12,6.40
2010,10,13,03,13,6.40
2010,10,13,03,14,6.40
2010,10,13,03,15,6.40
2010,10,13,03,16,6.40
2010,10,13,03,17,6.40
2010,10,13,03,18,6.40
2010,10,13,03,19,6.40
2010,10,13,03,20,6.40
2010,10,13,03,21,6.30
2010,10,13,03,22,6.30
2010,10,13,03,23,6.30
2010,10,13,03,24,6.30
2010,10,13,03,25,6.30
2010,10,13,03,26,6.30
2010,10,13,03,27,6.30
2010,10,13,03,28,6.30
2010,10,13,03,29,6.30
2010,10,13,03,30,6.30
2010,10,13,03,31,6.30
2010,10,13,03,32,6.30
2010,10,13,03,33,6.30
2010,10,13,03,34,6.30
2010,10,13,03,35,6.30
2010,10,13,03,36,6.30
2010,10,13,03,37,6.30
2010,10,13,03,38,6.30
2010,10,13,03,39,6.30
2010,10,13,03,40,6.30
2010,10,13,03,41,6.30
2010,10,13,03,42,6.40
2010,10,13,03,43,6.40
2010,10,13,03,44,6.40
2010,10,13,03,45,6.40
2010,10,13,03,46,6.40
2010,10,13,03,47,6.40
2010,10,13,03,48,6.40
2010,10,13,03,49,6.40
2010,10,13,03,50,6.40
2010,10,13,03,51,6.40
2010,10,13,03,52,6.40
2010,10,13,03,53,6.40
2010,10,13,03,54,6.40
2010,10,13,03,55,6.40
2010,10,13,03,56,6.40
2010,10,13,03,57,6.50
2010,10,13,03,58,6.60
2010,10,13,03,59,6.60
2010,10,13,04,00,6.60
2010,10,13,04,01,6.60
2010,10,13,04,02,6.60
2010,10,13,04,03,6.60
2010,10,13,04,04,6.60
2010,10,13,04,05,6.60
2010,10,13,04,06,6.60
2010,10,13,04,07,6.60
2010,10,13,04,08,6.60
2010,10,13,04,09,6.60
2010,10,13,04,10,6.60
2010,10,13,04,11,6.60
2010,10,13,04,12,6.50
2010,10,13,04,13,6.50
2010,10,13,04,14,6.60
2010,10,13,04,15,6.50
2010,10,13,04,16,6.40
2010,10,13,04,17,6.40
2010,10,13,04,18,6.40
2010,10,13,04,19,6.40
2010,10,13,04,20,6.40
2010,10,13,04,21,6.40
2010,10,13,04,22,6.40
2010,10,13,04,23,6.40
2010,10,13,04,24,6.40
2010,10,13,04,25,6.40
2010,10,13,04,26,6.40
2010,10,13,04,27,6.40
2010,10,13,04,28,6.40
2010,10,13,04,29,6.40
2010,10,13,04,30,6.40
2010,10,13,04,31,6.40
2010,10,13,04,32,6.40
2010,10,13,04,33,6.40
2010,10,13,04,34,6.50
2010,10,13,04,35,6.60
2010,10,13,04,36,6.60
2010,10,13,04,37,6.60
2010,10,13,04,38,6.60
2010,10,13,04,39,6.60
2010,10,13,04,40,6.60
2010,10,13,04,41,6.60
2010,10,13,04,42,6.60
2010,10,13,04,43,6.60
2010,10,13,04,44,6.60
2010,10,13,04,45,6.60
2010,10,13,04,46,6.60
2010,10,13,04,47,6.60
2010,10,13,04,48,6.60
2010,10,13,04,49,6.60
2010,10,13,04,50,6.60
2010,10,13,04,51,6.60
2010,10,13,04,52,6.40
2010,10,13,04,53,6.40
2010,10,13,04,54,6.40
2010,10,13,04,55,6.40
2010,10,13,04,56,6.40
2010,10,13,04,57,6.40
2010,10,13,04,58,6.40
2010,10,13,04,59,6.40
2010,10,13,05,00,6.40
2010,10,13,05,01,6.40
2010,10,13,05,02,6.40
2010,10,13,05,03,6.40
2010,10,13,05,04,6.30
2010,10,13,05,05,6.30
2010,10,13,05,06,6.30
2010,10,13,05,07,6.30
2010,10,13,05,08,6.30
2010,10,13,05,09,6.30
2010,10,13,05,10,6.30
2010,10,13,05,11,6.40
2010,10,13,05,12,6.40
2010,10,13,05,13,6.40
2010,10,13,05,14,6.40
2010,10,13,05,15,6.40
2010,10,13,05,16,6.40
2010,10,13,05,17,6.40
2010,10,13,05,18,6.50
2010,10,13,05,19,6.60
2010,10,13,05,20,6.60
2010,10,13,05,21,6.60
2010,10,13,05,22,6.60
2010,10,13,05,23,6.60
2010,10,13,05,24,6.60
2010,10,13,05,25,6.50
2010,10,13,05,26,6.50
2010,10,13,05,27,6.50
2010,10,13,05,28,6.60
2010,10,13,05,29,6.60
2010,10,13,05,30,6.60
2010,10,13,05,31,6.60
2010,10,13,05,32,6.60
2010,10,13,05,33,6.60
2010,10,13,05,34,6.60
2010,10,13,05,35,6.60
2010,10,13,05,36,6.60
2010,10,13,05,37,6.70
2010,10,13,05,38,6.70
2010,10,13,05,39,6.80
2010,10,13,05,40,6.80
2010,10,13,05,41,6.80
2010,10,13,05,42,6.80
2010,10,13,05,43,6.80
2010,10,13,05,44,6.80
2010,10,13,05,45,6.80
2010,10,13,05,46,6.80
2010,10,13,05,47,6.80
2010,10,13,05,48,6.70
2010,10,13,05,49,6.70
2010,10,13,05,50,6.70
2010,10,13,05,51,6.70
2010,10,13,05,52,6.70
2010,10,13,05,53,6.70
2010,10,13,05,54,6.70
2010,10,13,05,55,6.60
2010,10,13,05,56,6.60
2010,10,13,05,57,6.60
2010,10,13,05,58,6.60
2010,10,13,05,59,6.60
2010,10,13,06,00,6.50
2010,10,13,06,01,6.40
2010,10,13,06,02,6.40
2010,10,13,06,03,6.40
2010,10,13,06,04,6.40
2010,10,13,06,05,6.40
2010,10,13,06,06,6.30
2010,10,13,06,07,6.30
2010,10,13,06,08,6.30
2010,10,13,06,09,6.20
2010,10,13,06,10,6.20
2010,10,13,06,11,6.20
2010,10,13,06,12,6.20
2010,10,13,06,13,6.20
2010,10,13,06,14,6.20
2010,10,13,06,15,6.20
2010,10,13,06,16,6.20
2010,10,13,06,17,6.20
2010,10,13,06,18,6.20
2010,10,13,06,19,6.20
2010,10,13,06,20,6.30
2010,10,13,06,21,6.30
2010,10,13,06,22,6.40
2010,10,13,06,23,6.40
2010,10,13,06,24,6.60
2010,10,13,06,25,6.60
2010,10,13,06,26,6.70
2010,10,13,06,27,6.80
2010,10,13,06,28,6.80
2010,10,13,06,29,6.80
2010,10,13,06,30,6.80
2010,10,13,06,31,6.80
2010,10,13,06,32,6.80
2010,10,13,06,33,6.80
2010,10,13,06,34,6.80
2010,10,13,06,35,6.80
2010,10,13,06,36,6.70
2010,10,13,06,37,6.70
2010,10,13,06,38,6.80
2010,10,13,06,39,6.80
2010,10,13,06,40,6.80
2010,10,13,06,41,6.80
2010,10,13,06,42,6.80
2010,10,13,06,43,6.80
2010,10,13,06,44,6.70
2010,10,13,06,45,6.70
2010,10,13,06,46,6.70
2010,10,13,06,47,6.70
2010,10,13,06,48,6.70
2010,10,13,06,49,6.70
2010,10,13,06,50,6.70
2010,10,13,06,51,6.70
2010,10,13,06,52,6.70
2010,10,13,06,53,6.80
2010,10,13,06,54,6.80
2010,10,13,06,55,6.80
2010,10,13,06,56,6.80
2010,10,13,06,57,6.80
2010,10,13,06,58,6.80
2010,10,13,06,59,6.80
2010,10,13,07,00,6.80
2010,10,13,07,01,6.80
2010,10,13,07,02,6.80
2010,10,13,07,03,6.80
2010,10,13,07,04,6.80
2010,10,13,07,05,6.80
2010,10,13,07,06,6.80
2010,10,13,07,07,6.80
2010,10,13,07,08,6.80
2010,10,13,07,09,6.80
2010,10,13,07,10,6.80
2010,10,13,07,11,6.80
2010,10,13,07,12,6.80
2010,10,13,07,13,6.80
2010,10,13,07,14,6.80
2010,10,13,07,15,6.80
2010,10,13,07,16,6.80
2010,10,13,07,17,6.80
2010,10,13,07,18,6.80
2010,10,13,07,19,6.80
2010,10,13,07,20,6.80
2010,10,13,07,21,6.80
2010,10,13,07,22,6.80
2010,10,13,07,23,6.80
2010,10,13,07,24,6.80
2010,10,13,07,25,6.80
2010,10,13,07,26,6.80
2010,10,13,07,27,6.80
2010,10,13,07,28,6.80
2010,10,13,07,29,6.80
2010,10,13,07,30,6.80
2010,10,13,07,31,6.80
2010,10,13,07,32,6.80
2010,10,13,07,33,6.80
2010,10,13,07,34,6.80
2010,10,13,07,35,6.80
2010,10,13,07,36,6.80
2010,10,13,07,37,6.80
2010,10,13,07,38,6.80
2010,10,13,07,39,6.80
2010,10,13,07,40,6.90
2010,10,13,07,41,6.90
2010,10,13,07,42,7.00
2010,10,13,07,43,7.00
2010,10,13,07,44,7.00
2010,10,13,07,45,7.10
2010,10,13,07,46,7.10
2010,10,13,07,47,7.10
2010,10,13,07,48,7.10
2010,10,13,07,49,7.10
2010,10,13,07,50,7.10
2010,10,13,07,51,7.10
2010,10,13,07,52,7.10
2010,10,13,07,53,7.10
2010,10,13,07,54,7.00
2010,10,13,07,55,7.10
2010,10,13,07,56,7.10
2010,10,13,07,57,7.10
2010,10,13,07,58,7.10
2010,10,13,07,59,7.20
2010,10,13,08,00,7.20
2010,10,13,08,01,7.30
2010,10,13,08,02,7.40
2010,10,13,08,03,7.50
2010,10,13,08,04,7.60
2010,10,13,08,05,7.70
2010,10,13,08,06,7.80
2010,10,13,08,07,7.90
2010,10,13,08,08,8.00
2010,10,13,08,09,8.10
2010,10,13,08,10,8.20
2010,10,13,08,11,8.20
2010,10,13,08,12,8.20
2010,10,13,08,13,8.20
2010,10,13,08,14,8.20
2010,10,13,08,15,8.20
2010,10,13,08,16,8.20
2010,10,13,08,17,8.10
2010,10,13,08,18,8.10
2010,10,13,08,19,8.00
2010,10,13,08,20,8.00
2010,10,13,08,21,8.00
2010,10,13,08,22,8.00
2010,10,13,08,23,8.00
2010,10,13,08,24,7.90
2010,10,13,08,25,7.90
2010,10,13,08,26,7.90
2010,10,13,08,27,7.90
2010,10,13,08,28,7.90
2010,10,13,08,29,7.90
2010,10,13,08,30,7.90
2010,10,13,08,31,7.80
2010,10,13,08,32,7.80
2010,10,13,08,33,7.80
2010,10,13,08,34,7.80
2010,10,13,08,35,7.90
2010,10,13,08,36,7.90
2010,10,13,08,37,7.90
2010,10,13,08,38,7.90
2010,10,13,08,39,7.90
2010,10,13,08,40,7.90
2010,10,13,08,41,7.90
2010,10,13,08,42,7.90
2010,10,13,08,43,8.00
2010,10,13,08,44,8.00
2010,10,13,08,45,8.00
2010,10,13,08,46,8.00
2010,10,13,08,47,8.00
2010,10,13,08,48,8.10
2010,10,13,08,49,8.10
2010,10,13,08,50,8.10
2010,10,13,08,51,8.10
2010,10,13,08,52,8.10
2010,10,13,08,53,8.10
2010,10,13,08,54,8.20
2010,10,13,08,55,8.20
2010,10,13,08,56,8.20
2010,10,13,08,57,8.20
2010,10,13,08,58,8.20
2010,10,13,08,59,8.20
2010,10,13,09,00,8.20
2010,10,13,09,01,8.20
2010,10,13,09,02,8.20
2010,10,13,09,03,8.20
2010,10,13,09,04,8.30
2010,10,13,09,05,8.30
2010,10,13,09,06,8.30
2010,10,13,09,07,8.40
2010,10,13,09,08,8.40
2010,10,13,09,09,8.50
2010,10,13,09,10,8.50
2010,10,13,09,11,8.50
2010,10,13,09,12,8.60
2010,10,13,09,13,8.60
2010,10,13,09,14,8.70
2010,10,13,09,15,8.80
2010,10,13,09,16,8.90
2010,10,13,09,17,9.00
2010,10,13,09,18,9.10
2010,10,13,09,19,9.20
2010,10,13,09,20,9.20
2010,10,13,09,21,9.40
2010,10,13,09,22,9.40
2010,10,13,09,23,9.50
2010,10,13,09,24,9.60
2010,10,13,09,25,9.80
2010,10,13,09,26,9.90
2010,10,13,09,27,10.00
2010,10,13,09,28,10.10
2010,10,13,09,29,10.20
2010,10,13,09,30,10.30
2010,10,13,09,31,10.30
2010,10,13,09,32,10.40
2010,10,13,09,33,10.40
2010,10,13,09,34,10.40
2010,10,13,09,35,10.40
2010,10,13,09,36,10.50
2010,10,13,09,37,10.60
2010,10,13,09,38,10.60
2010,10,13,09,39,10.70
2010,10,13,09,40,10.70
2010,10,13,09,41,10.80
2010,10,13,09,42,10.80
2010,10,13,09,43,10.90
2010,10,13,09,44,10.90
2010,10,13,09,45,11.00
2010,10,13,09,46,11.10
2010,10,13,09,47,11.10
2010,10,13,09,48,11.20
2010,10,13,09,49,11.20
2010,10,13,09,50,11.30
2010,10,13,09,51,11.40
2010,10,13,09,52,11.40
2010,10,13,09,53,11.40
2010,10,13,09,54,11.50
2010,10,13,09,55,11.60
2010,10,13,09,56,11.70
2010,10,13,09,57,11.70
2010,10,13,09,58,11.80
2010,10,13,09,59,11.80
2010,10,13,10,00,11.80
2010,10,13,10,01,11.80
2010,10,13,10,02,11.90
2010,10,13,10,03,11.90
2010,10,13,10,04,12.00
2010,10,13,10,05,12.00
2010,10,13,10,06,12.10
2010,10,13,10,07,12.20
2010,10,13,10,08,12.30
2010,10,13,10,09,12.30
2010,10,13,10,10,12.30
2010,10,13,10,11,12.40
2010,10,13,10,12,12.50
2010,10,13,10,13,12.50
2010,10,13,10,14,12.60
2010,10,13,10,15,12.60
2010,10,13,10,16,12.70
2010,10,13,10,17,12.70
2010,10,13,10,18,12.80
2010,10,13,10,19,12.80
2010,10,13,10,20,12.90
2010,10,13,10,21,12.90
2010,10,13,10,22,12.90
2010,10,13,10,23,13.00
2010,10,13,10,24,13.00
2010,10,13,10,25,13.10
2010,10,13,10,26,13.10
2010,10,13,10,27,13.20
2010,10,13,10,28,13.20
2010,10,13,10,29,13.30
2010,10,13,10,30,13.30
2010,10,13,10,31,13.30
2010,10,13,10,32,13.40
2010,10,13,10,33,13.50
2010,10,13,10,34,13.50
2010,10,13,10,35,13.50
2010,10,13,10,36,13.60
2010,10,13,10,37,13.60
2010,10,13,10,38,13.70
2010,10,13,10,39,13.70
2010,10,13,10,40,13.80
2010,10,13,10,41,13.80
2010,10,13,10,42,13.90
2010,10,13,10,43,13.90
2010,10,13,10,44,13.90
2010,10,13,10,45,14.00
2010,10,13,10,46,14.00
2010,10,13,10,47,14.10
2010,10,13,10,48,14.10
2010,10,13,10,49,14.10
2010,10,13,10,50,14.20
2010,10,13,10,51,14.20
2010,10,13,10,52,14.20
2010,10,13,10,53,14.20
2010,10,13,10,54,14.20
2010,10,13,10,55,14.30
2010,10,13,10,56,14.30
2010,10,13,10,57,14.40
2010,10,13,10,58,14.40
2010,10,13,10,59,14.50
2010,10,13,11,00,14.50
2010,10,13,11,01,14.50
2010,10,13,11,02,14.60
2010,10,13,11,03,14.60
2010,10,13,11,04,14.60
2010,10,13,11,05,14.60
2010,10,13,11,06,14.60
2010,10,13,11,07,14.70
2010,10,13,11,08,14.60
2010,10,13,11,09,14.60
2010,10,13,11,10,14.50
2010,10,13,11,11,14.50
2010,10,13,11,12,14.50
2010,10,13,11,13,14.50
2010,10,13,11,14,14.50
2010,10,13,11,15,14.50
2010,10,13,11,16,14.50
2010,10,13,11,17,14.50
2010,10,13,11,18,14.50
2010,10,13,11,19,14.50
2010,10,13,11,20,14.50
2010,10,13,11,21,14.50
2010,10,13,11,22,14.50
2010,10,13,11,23,14.50
2010,10,13,11,24,14.50
2010,10,13,11,25,14.60
2010,10,13,11,26,14.60
2010,10,13,11,27,14.70
2010,10,13,11,28,14.80
2010,10,13,11,29,14.80
2010,10,13,11,30,14.80
2010,10,13,11,31,14.90
2010,10,13,11,32,15.00
2010,10,13,11,33,15.00
2010,10,13,11,34,15.00
2010,10,13,11,35,15.00
2010,10,13,11,36,15.00
2010,10,13,11,37,15.00
2010,10,13,11,38,15.10
2010,10,13,11,39,15.10
2010,10,13,11,40,15.10
2010,10,13,11,41,15.10
2010,10,13,11,42,15.20
2010,10,13,11,43,15.20
2010,10,13,11,44,15.20
2010,10,13,11,45,15.30
2010,10,13,11,46,15.30
2010,10,13,11,47,15.30
2010,10,13,11,48,15.30
2010,10,13,11,49,15.30
2010,10,13,11,50,15.30
2010,10,13,11,51,15.30
2010,10,13,11,52,15.30
2010,10,13,11,53,15.20
2010,10,13,11,54,15.20
2010,10,13,11,55,15.20
2010,10,13,11,56,15.20
2010,10,13,11,57,15.20
2010,10,13,11,58,15.20
2010,10,13,11,59,15.20
2010,10,13,12,00,15.20
2010,10,13,12,01,15.30
2010,10,13,12,02,15.30
2010,10,13,12,03,15.20
2010,10,13,12,04,15.20
2010,10,13,12,05,15.20
2010,10,13,12,06,15.20
2010,10,13,12,07,15.20
2010,10,13,12,08,15.30
2010,10,13,12,09,15.30
2010,10,13,12,10,15.30
2010,10,13,12,11,15.30
2010,10,13,12,12,15.30
2010,10,13,12,13,15.30
2010,10,13,12,14,15.30
2010,10,13,12,15,15.30
2010,10,13,12,16,15.40
2010,10,13,12,17,15.30
2010,10,13,12,18,15.30
2010,10,13,12,19,15.30
2010,10,13,12,20,15.30
2010,10,13,12,21,15.30
2010,10,13,12,22,15.30
2010,10,13,12,23,15.30
2010,10,13,12,24,15.30
2010,10,13,12,25,15.30
2010,10,13,12,26,15.30
2010,10,13,12,27,15.30
2010,10,13,12,28,15.30
2010,10,13,12,29,15.30
2010,10,13,12,30,15.30
2010,10,13,12,31,15.30
2010,10,13,12,32,15.30
2010,10,13,12,33,15.30
2010,10,13,12,34,15.30
2010,10,13,12,35,15.30
2010,10,13,12,36,15.30
2010,10,13,12,37,15.30
2010,10,13,12,38,15.30
2010,10,13,12,39,15.30
2010,10,13,12,40,15.30
2010,10,13,12,41,15.40
2010,10,13,12,42,15.40
2010,10,13,12,43,15.40
2010,10,13,12,44,15.40
2010,10,13,12,45,15.50
2010,10,13,12,46,15.50
2010,10,13,12,47,15.50
2010,10,13,12,48,15.40
2010,10,13,12,49,15.50
2010,10,13,12,50,15.50
2010,10,13,12,51,15.60
2010,10,13,12,52,15.60
2010,10,13,12,53,15.70
2010,10,13,12,54,15.80
2010,10,13,12,55,15.80
2010,10,13,12,56,15.80
2010,10,13,12,57,15.90
2010,10,13,12,58,16.00
2010,10,13,12,59,16.10
2010,10,13,13,00,16.10
2010,10,13,13,01,16.10
2010,10,13,13,02,16.20
2010,10,13,13,03,16.20
2010,10,13,13,04,16.30
2010,10,13,13,05,16.30
2010,10,13,13,06,16.30
2010,10,13,13,07,16.30
2010,10,13,13,08,16.20
2010,10,13,13,09,16.20
2010,10,13,13,10,16.10
2010,10,13,13,11,16.10
2010,10,13,13,12,16.10
2010,10,13,13,13,16.10
2010,10,13,13,14,16.10
2010,10,13,13,15,16.10
2010,10,13,13,16,16.10
2010,10,13,13,17,16.10
2010,10,13,13,18,16.20
2010,10,13,13,19,16.20
2010,10,13,13,20,16.30
2010,10,13,13,21,16.30
2010,10,13,13,22,16.40
2010,10,13,13,23,16.40
2010,10,13,13,24,16.40
2010,10,13,13,25,16.40
2010,10,13,13,26,16.40
2010,10,13,13,27,16.60
2010,10,13,13,28,16.60
2010,10,13,13,29,16.60
2010,10,13,13,30,16.70
2010,10,13,13,31,16.70
2010,10,13,13,32,16.70
2010,10,13,13,33,16.70
2010,10,13,13,34,16.70
2010,10,13,13,35,16.70
2010,10,13,13,36,16.70
2010,10,13,13,37,16.60
2010,10,13,13,38,16.60
2010,10,13,13,39,16.70
2010,10,13,13,40,16.70
2010,10,13,13,41,16.70
2010,10,13,13,42,16.80
2010,10,13,13,43,16.80
2010,10,13,13,44,16.90
2010,10,13,13,45,17.00
2010,10,13,13,46,17.00
2010,10,13,13,47,17.00
2010,10,13,13,48,17.00
2010,10,13,13,49,17.00
2010,10,13,13,50,17.10
2010,10,13,13,51,17.10
2010,10,13,13,52,17.20
2010,10,13,13,53,17.20
2010,10,13,13,54,17.30
2010,10,13,13,55,17.30
2010,10,13,13,56,17.30
2010,10,13,13,57,17.30
2010,10,13,13,58,17.30
2010,10,13,13,59,17.30
2010,10,13,14,00,17.30
2010,10,13,14,01,17.30
2010,10,13,14,02,17.30
2010,10,13,14,03,17.40
2010,10,13,14,04,17.50
2010,10,13,14,05,17.50
2010,10,13,14,06,17.50
2010,10,13,14,07,17.50
2010,10,13,14,08,17.50
2010,10,13,14,09,17.50
2010,10,13,14,10,17.50
2010,10,13,14,11,17.50
2010,10,13,14,12,17.60
2010,10,13,14,13,17.60
2010,10,13,14,14,17.70
2010,10,13,14,15,17.80
2010,10,13,14,16,17.90
2010,10,13,14,17,17.90
2010,10,13,14,18,17.90
2010,10,13,14,19,17.90
2010,10,13,14,20,17.90
2010,10,13,14,21,17.90
2010,10,13,14,22,17.90
2010,10,13,14,23,17.90
2010,10,13,14,24,17.90
2010,10,13,14,25,17.90
2010,10,13,14,26,18.00
2010,10,13,14,27,18.10
2010,10,13,14,28,18.10
2010,10,13,14,29,18.10
2010,10,13,14,30,18.10
2010,10,13,14,31,18.10
2010,10,13,14,32,18.10
2010,10,13,14,33,18.00
2010,10,13,14,34,17.90
2010,10,13,14,35,17.80
2010,10,13,14,36,17.80
2010,10,13,14,37,17.80
2010,10,13,14,38,17.80
2010,10,13,14,39,17.90
2010,10,13,14,40,17.90
2010,10,13,14,41,17.90
2010,10,13,14,42,17.90
2010,10,13,14,43,18.00
2010,10,13,14,44,18.10
2010,10,13,14,45,18.10
2010,10,13,14,46,18.10
2010,10,13,14,47,18.10
2010,10,13,14,48,18.10
2010,10,13,14,49,18.10
2010,10,13,14,50,18.10
2010,10,13,14,51,18.20
2010,10,13,14,52,18.20
2010,10,13,14,53,18.20
2010,10,13,14,54,18.30
2010,10,13,14,55,18.40
2010,10,13,14,56,18.40
2010,10,13,14,57,18.40
2010,10,13,14,58,18.50
2010,10,13,14,59,18.50
2010,10,13,15,00,18.60
2010,10,13,15,01,18.60
2010,10,13,15,02,18.60
2010,10,13,15,03,18.60
2010,10,13,15,04,18.70
2010,10,13,15,05,18.70
2010,10,13,15,06,18.70
2010,10,13,15,07,18.60
2010,10,13,15,08,18.60
2010,10,13,15,09,18.60
2010,10,13,15,10,18.60
2010,10,13,15,11,18.60
2010,10,13,15,12,18.60
2010,10,13,15,13,18.60
2010,10,13,15,14,18.60
2010,10,13,15,15,18.60
2010,10,13,15,16,18.60
2010,10,13,15,17,18.60
2010,10,13,15,18,18.60
2010,10,13,15,19,18.60
2010,10,13,15,20,18.60
2010,10,13,15,21,18.60
2010,10,13,15,22,18.60
2010,10,13,15,23,18.60
2010,10,13,15,24,18.60
2010,10,13,15,25,18.60
2010,10,13,15,26,18.50
2010,10,13,15,27,18.50
2010,10,13,15,28,18.50
2010,10,13,15,29,18.60
2010,10,13,15,30,18.60
2010,10,13,15,31,18.70
2010,10,13,15,32,18.70
2010,10,13,15,33,18.80
2010,10,13,15,34,18.80
2010,10,13,15,35,18.80
2010,10,13,15,36,18.80
2010,10,13,15,37,18.80
2010,10,13,15,38,18.80
2010,10,13,15,39,18.90
2010,10,13,15,40,18.90
2010,10,13,15,41,18.90
2010,10,13,15,42,19.00
2010,10,13,15,43,19.10
2010,10,13,15,44,19.10
2010,10,13,15,45,19.00
2010,10,13,15,46,18.90
2010,10,13,15,47,18.90
2010,10,13,15,48,18.90
2010,10,13,15,49,18.90
2010,10,13,15,50,18.90
2010,10,13,15,51,18.80
2010,10,13,15,52,18.60
2010,10,13,15,53,18.50
2010,10,13,15,54,18.40
2010,10,13,15,55,18.20
2010,10,13,15,56,18.20
2010,10,13,15,57,18.10
2010,10,13,15,58,18.10
2010,10,13,15,59,18.10
2010,10,13,16,00,18.00
2010,10,13,16,01,17.90
2010,10,13,16,02,17.90
2010,10,13,16,03,17.90
2010,10,13,16,04,17.80
2010,10,13,16,05,17.70
2010,10,13,16,06,17.60
2010,10,13,16,07,17.50
2010,10,13,16,08,17.50
2010,10,13,16,09,17.40
2010,10,13,16,10,17.40
2010,10,13,16,11,17.40
2010,10,13,16,12,17.30
2010,10,13,16,13,17.30
2010,10,13,16,14,17.30
2010,10,13,16,15,17.30
2010,10,13,16,16,17.30
2010,10,13,16,17,17.30
2010,10,13,16,18,17.30
2010,10,13,16,19,17.30
2010,10,13,16,20,17.30
2010,10,13,16,21,17.30
2010,10,13,16,22,17.30
2010,10,13,16,23,17.20
2010,10,13,16,24,17.10
2010,10,13,16,25,17.00
2010,10,13,16,26,17.00
2010,10,13,16,27,16.90
2010,10,13,16,28,16.90
2010,10,13,16,29,16.90
2010,10,13,16,30,16.90
2010,10,13,16,31,16.90
2010,10,13,16,32,16.90
2010,10,13,16,33,16.90
2010,10,13,16,34,16.90
2010,10,13,16,35,16.90
2010,10,13,16,36,16.90
2010,10,13,16,37,16.90
2010,10,13,16,38,16.90
2010,10,13,16,39,16.90
2010,10,13,16,40,16.90
2010,10,13,16,41,16.90
2010,10,13,16,42,16.90
2010,10,13,16,43,16.90
2010,10,13,16,44,16.90
2010,10,13,16,45,16.90
2010,10,13,16,46,16.90
2010,10,13,16,47,16.90
2010,10,13,16,48,16.80
2010,10,13,16,49,16.80
2010,10,13,16,50,16.80
2010,10,13,16,51,16.80
2010,10,13,16,52,16.90
2010,10,13,16,53,16.90
2010,10,13,16,54,16.90
2010,10,13,16,55,16.80
2010,10,13,16,56,16.80
2010,10,13,16,57,16.70
2010,10,13,16,58,16.70
2010,10,13,16,59,16.70
2010,10,13,17,00,16.70
2010,10,13,17,01,16.60
2010,10,13,17,02,16.50
2010,10,13,17,03,16.40
2010,10,13,17,04,16.40
2010,10,13,17,05,16.30
2010,10,13,17,06,16.30
2010,10,13,17,07,16.30
2010,10,13,17,08,16.30
2010,10,13,17,09,16.20
2010,10,13,17,10,16.20
2010,10,13,17,11,16.10
2010,10,13,17,12,16.10
2010,10,13,17,13,16.10
2010,10,13,17,14,16.00
2010,10,13,17,15,15.90
2010,10,13,17,16,15.90
2010,10,13,17,17,15.80
2010,10,13,17,18,15.80
2010,10,13,17,19,15.80
2010,10,13,17,20,15.70
2010,10,13,17,21,15.60
2010,10,13,17,22,15.60
2010,10,13,17,23,15.50
2010,10,13,17,24,15.50
2010,10,13,17,25,15.50
2010,10,13,17,26,15.40
2010,10,13,17,27,15.40
2010,10,13,17,28,15.30
2010,10,13,17,29,15.30
2010,10,13,17,30,15.20
2010,10,13,17,31,15.20
2010,10,13,17,32,15.10
2010,10,13,17,33,15.10
2010,10,13,17,34,15.00
2010,10,13,17,35,15.00
2010,10,13,17,36,15.00
2010,10,13,17,37,15.00
2010,10,13,17,38,14.90
2010,10,13,17,39,14.80
2010,10,13,17,40,14.80
2010,10,13,17,41,14.70
2010,10,13,17,42,14.70
2010,10,13,17,43,14.70
2010,10,13,17,44,14.70
2010,10,13,17,45,14.70
2010,10,13,17,46,14.70